| time (UTC) | temp F | wind direction | speed MPH | gust MPH | rain 1hr in | rain 24hr in | rain mn in | humidity % | barometer mb |
| 20260508054322 | 56 | 248 | 0.0 | 0.0 | 0.00 | 0.00 | 0.00 | 20 | 1016.4 |
| 20260508053722 | 56 | 248 | 0.0 | 0.0 | 0.00 | 0.00 | 0.00 | 19 | 1016.4 |
| 20260508053123 | 56 | 248 | 0.0 | 0.0 | 0.00 | 0.00 | 0.00 | 20 | 1016.4 |
| 20260508052523 | 57 | 248 | 0.0 | 0.0 | 0.00 | 0.00 | 0.00 | 19 | 1016.3 |
| 20260508051922 | 57 | 248 | 0.0 | 0.0 | 0.00 | 0.00 | 0.00 | 19 | 1016.3 |
| 20260508051322 | 58 | 249 | 0.0 | 0.0 | 0.00 | 0.00 | 0.00 | 18 | 1016.4 |
| 20260508050722 | 58 | 249 | 0.0 | 0.0 | 0.00 | 0.00 | 0.00 | 18 | 1016.3 |
| 20260508050122 | 58 | 250 | 0.0 | 0.0 | 0.00 | 0.00 | 0.00 | 18 | 1016.3 |
| 20260508045522 | 58 | 250 | 0.0 | 0.0 | 0.00 | 0.00 | 0.00 | 18 | 1016.3 |
| 20260508044922 | 59 | 305 | 0.0 | 0.0 | 0.00 | 0.00 | 0.00 | 18 | 1016.2 |
| 20260508044323 | 59 | 305 | 0.0 | 0.0 | 0.00 | 0.00 | 0.00 | 18 | 1016.2 |
| 20260508043722 | 59 | 305 | 0.0 | 0.0 | 0.00 | 0.00 | 0.00 | 18 | 1016.1 |
| 20260508043122 | 59 | 305 | 0.0 | 0.0 | 0.00 | 0.00 | 0.00 | 18 | 1016.2 |
| 20260508042522 | 59 | 305 | 0.0 | 0.0 | 0.00 | 0.00 | 0.00 | 17 | 1016.1 |
| 20260508041922 | 59 | 305 | 0.0 | 0.0 | 0.00 | 0.00 | 0.00 | 17 | 1016.1 |
| 20260508041322 | 59 | 305 | 0.0 | 0.0 | 0.00 | 0.00 | 0.00 | 17 | 1016.1 |
| 20260508040722 | 59 | 305 | 0.0 | 0.0 | 0.00 | 0.00 | 0.00 | 16 | 1016.1 |
| 20260508040122 | 60 | 307 | 0.0 | 0.0 | 0.00 | 0.00 | 0.00 | 16 | 1016.1 |
| 20260508035523 | 60 | 307 | 0.0 | 0.0 | 0.00 | 0.00 | 0.00 | 15 | 1016.1 |
| 20260508034922 | 61 | 313 | 0.0 | 0.0 | 0.00 | 0.00 | 0.00 | 15 | 1016.0 |
| 20260508034322 | 61 | 315 | 0.0 | 0.0 | 0.00 | 0.00 | 0.00 | 15 | 1016.0 |
| 20260508033722 | 62 | 315 | 0.0 | 0.0 | 0.00 | 0.00 | 0.00 | 14 | 1015.9 |
| 20260508033122 | 62 | 316 | 0.0 | 0.0 | 0.00 | 0.00 | 0.00 | 14 | 1015.8 |
| 20260508032522 | 63 | 313 | 0.0 | 0.0 | 0.00 | 0.00 | 0.00 | 14 | 1015.7 |
| 20260508031922 | 63 | 305 | 0.0 | 0.0 | 0.00 | 0.00 | 0.00 | 13 | 1015.5 |
| 20260508031322 | 64 | 309 | 0.0 | 0.0 | 0.00 | 0.00 | 0.00 | 13 | 1015.5 |
| 20260508030722 | 65 | 309 | 0.0 | 0.0 | 0.00 | 0.00 | 0.00 | 12 | 1015.4 |
| 20260508030122 | 65 | 315 | 0.0 | 0.0 | 0.00 | 0.00 | 0.00 | 12 | 1015.3 |
| 20260508025522 | 66 | 312 | 0.0 | 0.0 | 0.00 | 0.00 | 0.00 | 12 | 1015.3 |
| 20260508024922 | 66 | 318 | 0.0 | 0.0 | 0.00 | 0.00 | 0.00 | 11 | 1015.2 |
| 20260508024322 | 67 | 304 | 0.0 | 0.0 | 0.00 | 0.00 | 0.00 | 11 | 1015.1 |
| 20260508023722 | 68 | 305 | 0.0 | 0.0 | 0.00 | 0.00 | 0.00 | 11 | 1015.0 |
| 20260508023122 | 68 | 292 | 0.0 | 0.0 | 0.00 | 0.00 | 0.00 | 11 | 1014.9 |
| 20260508022522 | 69 | 328 | 0.0 | 0.0 | 0.00 | 0.00 | 0.00 | 10 | 1014.9 |
| 20260508021922 | 69 | 292 | 0.0 | 0.0 | 0.00 | 0.00 | 0.00 | 10 | 1014.9 |
| 20260508021322 | 70 | 292 | 0.0 | 0.0 | 0.00 | 0.00 | 0.00 | 10 | 1014.7 |
| 20260508020722 | 70 | 276 | 0.0 | 0.0 | 0.00 | 0.00 | 0.00 | 10 | 1014.6 |
| 20260508020122 | 71 | 286 | 0.0 | 1.0 | 0.00 | 0.00 | 0.00 | 10 | 1014.6 |
| 20260508015522 | 71 | 307 | 0.0 | 3.0 | 0.00 | 0.00 | 0.00 | 9 | 1014.5 |
| 20260508014922 | 72 | 314 | 1.0 | 3.0 | 0.00 | 0.00 | 0.00 | 9 | 1014.4 |
| 20260508014322 | 72 | 299 | 0.0 | 5.0 | 0.00 | 0.00 | 0.00 | 10 | 1014.5 |
| 20260508013722 | 72 | 335 | 0.0 | 1.0 | 0.00 | 0.00 | 0.00 | 10 | 1014.4 |
| 20260508013122 | 72 | 335 | 0.0 | 0.0 | 0.00 | 0.00 | 0.00 | 11 | 1014.3 |
| 20260508012522 | 73 | 241 | 0.0 | 0.0 | 0.00 | 0.00 | 0.00 | 14 | 1014.2 |
| 20260508011922 | 73 | 233 | 0.0 | 0.0 | 0.00 | 0.00 | 0.00 | 14 | 1014.2 |
| 20260508011322 | 74 | 232 | 0.0 | 0.0 | 0.00 | 0.00 | 0.00 | 14 | 1014.2 |
| 20260508010722 | 75 | 234 | 0.0 | 0.0 | 0.00 | 0.00 | 0.00 | 13 | 1014.1 |
| 20260508010122 | 75 | 232 | 0.0 | 3.0 | 0.00 | 0.00 | 0.00 | 14 | 1014.1 |
| 20260508005522 | 75 | 234 | 0.0 | 3.0 | 0.00 | 0.00 | 0.00 | 13 | 1014.1 |
| 20260508004922 | 75 | 130 | 0.0 | 1.0 | 0.00 | 0.00 | 0.00 | 13 | 1014.0 |
| 20260508004322 | 75 | 147 | 0.0 | 5.0 | 0.00 | 0.00 | 0.00 | 13 | 1014.1 |
| 20260508003722 | 75 | 222 | 0.0 | 3.0 | 0.00 | 0.00 | 0.00 | 13 | 1014.0 |
| 20260508003122 | 76 | 251 | 0.0 | 0.0 | 0.00 | 0.00 | 0.00 | 13 | 1013.9 |
| 20260508002522 | 76 | 127 | 0.0 | 0.0 | 0.00 | 0.00 | 0.00 | 12 | 1014.0 |
| 20260508001922 | 75 | 170 | 0.0 | 0.0 | 0.00 | 0.00 | 0.00 | 13 | 1014.0 |
| 20260508001322 | 75 | 146 | 0.0 | 2.0 | 0.00 | 0.00 | 0.00 | 13 | 1013.9 |
| 20260508000722 | 75 | 147 | 0.0 | 6.0 | 0.00 | 0.00 | 0.00 | 12 | 1014.1 |
| 20260508000122 | 75 | 137 | 0.0 | 6.0 | 0.00 | 0.00 | 0.00 | 12 | 1014.0 |
| 20260507235522 | 74 | 138 | 0.0 | 2.0 | 0.00 | 0.00 | 0.00 | 13 | 1014.0 |
| 20260507234922 | 74 | 167 | 0.0 | 7.0 | 0.00 | 0.00 | 0.00 | 12 | 1014.0 |
| 20260507234322 | 75 | 131 | 2.0 | 7.0 | 0.00 | 0.00 | 0.00 | 12 | 1013.9 |
| 20260507233722 | 75 | 114 | 0.0 | 5.0 | 0.00 | 0.00 | 0.00 | 13 | 1014.1 |
| 20260507233122 | 75 | 147 | 1.0 | 8.0 | 0.00 | 0.00 | 0.00 | 13 | 1014.2 |
| 20260507232522 | 74 | 126 | 1.0 | 9.0 | 0.00 | 0.00 | 0.00 | 13 | 1014.2 |
| 20260507231922 | 76 | 148 | 0.0 | 4.0 | 0.00 | 0.00 | 0.00 | 13 | 1014.2 |
| 20260507231322 | 74 | 164 | 0.0 | 5.0 | 0.00 | 0.00 | 0.00 | 12 | 1014.4 |
| 20260507230722 | 75 | 219 | 0.0 | 5.0 | 0.00 | 0.00 | 0.00 | 12 | 1014.4 |
| 20260507230122 | 75 | 145 | 1.0 | 9.0 | 0.00 | 0.00 | 0.00 | 13 | 1014.5 |
| 20260507225522 | 74 | 132 | 2.0 | 6.0 | 0.00 | 0.00 | 0.00 | 12 | 1014.5 |
| 20260507224922 | 75 | 164 | 0.0 | 1.0 | 0.00 | 0.00 | 0.00 | 12 | 1014.6 |
| 20260507224323 | 75 | 133 | 0.0 | 3.0 | 0.00 | 0.00 | 0.00 | 12 | 1014.8 |
| 20260507223722 | 75 | 212 | 0.0 | 1.0 | 0.00 | 0.00 | 0.00 | 11 | 1014.7 |
| 20260507223122 | 75 | 139 | 0.0 | 1.0 | 0.00 | 0.00 | 0.00 | 12 | 1014.7 |
| 20260507222522 | 74 | 132 | 0.0 | 5.0 | 0.00 | 0.00 | 0.00 | 12 | 1014.8 |
| 20260507221922 | 75 | 134 | 0.0 | 3.0 | 0.00 | 0.00 | 0.00 | 13 | 1014.9 |
| 20260507221322 | 76 | 143 | 0.0 | 5.0 | 0.00 | 0.00 | 0.00 | 14 | 1015.0 |
| 20260507220722 | 74 | 114 | 0.0 | 7.0 | 0.00 | 0.00 | 0.00 | 14 | 1015.1 |
| 20260507220122 | 73 | 131 | 0.0 | 8.0 | 0.00 | 0.00 | 0.00 | 15 | 1015.3 |
| 20260507215522 | 72 | 110 | 1.0 | 8.0 | 0.00 | 0.00 | 0.00 | 16 | 1015.4 |
| 20260507214922 | 73 | 171 | 2.0 | 8.0 | 0.00 | 0.00 | 0.00 | 16 | 1015.5 |
| 20260507214322 | 73 | 142 | 0.0 | 5.0 | 0.00 | 0.00 | 0.00 | 16 | 1015.6 |
| 20260507213722 | 73 | 238 | 0.0 | 2.0 | 0.00 | 0.00 | 0.00 | 16 | 1015.8 |
| 20260507213122 | 73 | 167 | 0.0 | 5.0 | 0.00 | 0.00 | 0.00 | 15 | 1015.8 |
| 20260507212523 | 73 | 170 | 0.0 | 5.0 | 0.00 | 0.00 | 0.00 | 17 | 1016.0 |
| 20260507211922 | 72 | 140 | 0.0 | 1.0 | 0.00 | 0.00 | 0.00 | 16 | 1016.1 |
| 20260507211322 | 73 | 216 | 0.0 | 0.0 | 0.00 | 0.00 | 0.00 | 16 | 1016.2 |
| 20260507210722 | 72 | 125 | 0.0 | 4.0 | 0.00 | 0.00 | 0.00 | 17 | 1016.4 |
| 20260507210122 | 72 | 144 | 0.0 | 3.0 | 0.00 | 0.00 | 0.00 | 18 | 1016.5 |
| 20260507205522 | 72 | 213 | 0.0 | 3.0 | 0.00 | 0.00 | 0.00 | 16 | 1016.7 |
| 20260507204921 | 71 | 143 | 0.0 | 2.0 | 0.00 | 0.00 | 0.00 | 17 | 1016.8 |
| 20260507204322 | 71 | 162 | 0.0 | 3.0 | 0.00 | 0.00 | 0.00 | 17 | 1016.9 |
| 20260507203722 | 71 | 174 | 0.0 | 1.0 | 0.00 | 0.00 | 0.00 | 18 | 1017.0 |
| 20260507203121 | 71 | 251 | 0.0 | 4.0 | 0.00 | 0.00 | 0.00 | 17 | 1017.1 |
| 20260507202521 | 71 | 121 | 0.0 | 0.0 | 0.00 | 0.00 | 0.00 | 17 | 1017.2 |
| 20260507201921 | 72 | 185 | 0.0 | 0.0 | 0.00 | 0.00 | 0.00 | 17 | 1017.4 |
| 20260507201321 | 71 | 130 | 0.0 | 3.0 | 0.00 | 0.00 | 0.00 | 18 | 1017.5 |
| 20260507200722 | 70 | 124 | 0.0 | 3.0 | 0.00 | 0.00 | 0.00 | 19 | 1017.6 |
| 20260507200122 | 69 | 138 | 0.0 | 2.0 | 0.00 | 0.00 | 0.00 | 20 | 1017.6 |
| 20260507195521 | 68 | 114 | 0.0 | 2.0 | 0.00 | 0.00 | 0.00 | 20 | 1017.8 |
| 20260507194921 | 68 | 170 | 0.0 | 0.0 | 0.00 | 0.00 | 0.00 | 20 | 1018.0 |
| 20260507194321 | 67 | 164 | 0.0 | 0.0 | 0.00 | 0.00 | 0.00 | 20 | 1018.1 |
| 20260507193722 | 68 | 234 | 0.0 | 0.0 | 0.00 | 0.00 | 0.00 | 20 | 1018.2 |
| 20260507193122 | 67 | 211 | 0.0 | 7.0 | 0.00 | 0.00 | 0.00 | 21 | 1018.3 |
| 20260507192521 | 68 | 155 | 1.0 | 7.0 | 0.00 | 0.00 | 0.00 | 21 | 1018.3 |
| 20260507191922 | 68 | 124 | 0.0 | 0.0 | 0.00 | 0.00 | 0.00 | 22 | 1018.5 |
| 20260507191321 | 67 | 48 | 0.0 | 0.0 | 0.00 | 0.00 | 0.00 | 22 | 1018.5 |
| 20260507190721 | 66 | 134 | 0.0 | 0.0 | 0.00 | 0.00 | 0.00 | 23 | 1018.7 |
| 20260507190122 | 67 | 103 | 0.0 | 0.0 | 0.00 | 0.00 | 0.00 | 23 | 1018.8 |
| 20260507185522 | 65 | 177 | 0.0 | 0.0 | 0.00 | 0.00 | 0.00 | 24 | 1019.0 |
| 20260507184921 | 65 | 182 | 0.0 | 1.0 | 0.00 | 0.00 | 0.00 | 25 | 1019.1 |
| 20260507184321 | 66 | 145 | 0.0 | 6.0 | 0.00 | 0.00 | 0.00 | 23 | 1019.3 |
| 20260507183721 | 65 | 32 | 1.0 | 6.0 | 0.00 | 0.00 | 0.00 | 23 | 1019.3 |
| 20260507183121 | 65 | 359 | 0.0 | 3.0 | 0.00 | 0.00 | 0.00 | 23 | 1019.4 |
| 20260507182521 | 66 | 142 | 0.0 | 6.0 | 0.00 | 0.00 | 0.00 | 23 | 1019.5 |
| 20260507181921 | 66 | 68 | 2.0 | 6.0 | 0.00 | 0.00 | 0.00 | 24 | 1019.6 |
| 20260507181321 | 64 | 87 | 0.0 | 0.0 | 0.00 | 0.00 | 0.00 | 25 | 1019.8 |
| 20260507180721 | 63 | 14 | 0.0 | 0.0 | 0.00 | 0.00 | 0.00 | 27 | 1019.9 |
| 20260507180121 | 63 | 78 | 0.0 | 0.0 | 0.00 | 0.00 | 0.00 | 28 | 1020.0 |
| 20260507175521 | 62 | 116 | 0.0 | 0.0 | 0.00 | 0.00 | 0.00 | 29 | 1020.1 |
| 20260507174921 | 61 | 137 | 0.0 | 0.0 | 0.00 | 0.00 | 0.00 | 30 | 1020.1 |
| 20260507174321 | 61 | 166 | 0.0 | 3.0 | 0.00 | 0.00 | 0.00 | 30 | 1020.2 |
| 20260507173721 | 60 | 112 | 1.0 | 3.0 | 0.00 | 0.00 | 0.00 | 30 | 1020.4 |
| 20260507173121 | 60 | 355 | 0.0 | 2.0 | 0.00 | 0.00 | 0.00 | 30 | 1020.5 |
| 20260507172521 | 61 | 312 | 0.0 | 1.0 | 0.00 | 0.00 | 0.00 | 30 | 1020.6 |
| 20260507171921 | 62 | 4 | 0.0 | 3.0 | 0.00 | 0.00 | 0.00 | 29 | 1020.8 |
| 20260507171321 | 61 | 66 | 0.0 | 7.0 | 0.00 | 0.00 | 0.00 | 30 | 1020.9 |
| 20260507170721 | 61 | 44 | 1.0 | 5.0 | 0.00 | 0.00 | 0.00 | 30 | 1021.0 |
| 20260507170122 | 60 | 27 | 1.0 | 5.0 | 0.00 | 0.00 | 0.00 | 34 | 1021.0 |
| 20260507165521 | 59 | 44 | 0.0 | 4.0 | 0.00 | 0.00 | 0.00 | 35 | 1021.0 |
| 20260507164921 | 58 | 35 | 1.0 | 8.0 | 0.00 | 0.00 | 0.00 | 35 | 1021.1 |
| 20260507164321 | 58 | 357 | 1.0 | 8.0 | 0.00 | 0.00 | 0.00 | 36 | 1021.2 |
| 20260507163721 | 57 | 24 | 3.0 | 10.0 | 0.00 | 0.00 | 0.00 | 38 | 1021.3 |
| 20260507163121 | 56 | 68 | 1.0 | 7.0 | 0.00 | 0.00 | 0.00 | 40 | 1021.3 |
| 20260507162521 | 55 | 43 | 2.0 | 7.0 | 0.00 | 0.00 | 0.00 | 42 | 1021.4 |
| 20260507161921 | 55 | 36 | 4.0 | 8.0 | 0.00 | 0.00 | 0.00 | 44 | 1021.5 |
| 20260507161321 | 54 | 345 | 1.0 | 8.0 | 0.00 | 0.00 | 0.00 | 45 | 1021.5 |
| 20260507160721 | 53 | 350 | 5.0 | 8.0 | 0.00 | 0.00 | 0.00 | 47 | 1021.7 |
| 20260507160121 | 52 | 355 | 1.0 | 8.0 | 0.00 | 0.00 | 0.00 | 48 | 1021.6 |
| 20260507155521 | 52 | 18 | 5.0 | 8.0 | 0.00 | 0.00 | 0.00 | 48 | 1021.7 |
| 20260507154921 | 52 | 356 | 1.0 | 10.0 | 0.00 | 0.00 | 0.00 | 50 | 1021.7 |
| 20260507154321 | 52 | 35 | 5.0 | 9.0 | 0.00 | 0.00 | 0.00 | 50 | 1021.8 |
| 20260507153721 | 51 | 10 | 5.0 | 8.0 | 0.00 | 0.00 | 0.00 | 51 | 1021.8 |
| 20260507153121 | 50 | 345 | 4.0 | 9.0 | 0.00 | 0.00 | 0.00 | 54 | 1021.9 |
| 20260507152521 | 49 | 57 | 6.0 | 9.0 | 0.00 | 0.00 | 0.00 | 55 | 1022.0 |
| 20260507151921 | 49 | 4 | 3.0 | 9.0 | 0.00 | 0.00 | 0.00 | 55 | 1022.0 |
| 20260507151320 | 49 | 18 | 4.0 | 9.0 | 0.00 | 0.00 | 0.00 | 56 | 1022.0 |
| 20260507150720 | 48 | 48 | 3.0 | 10.0 | 0.00 | 0.00 | 0.00 | 57 | 1022.0 |
| 20260507150120 | 48 | 351 | 2.0 | 10.0 | 0.00 | 0.00 | 0.00 | 57 | 1022.0 |
| 20260507145520 | 48 | 335 | 3.0 | 10.0 | 0.00 | 0.00 | 0.00 | 58 | 1022.1 |
| 20260507144920 | 47 | 8 | 5.0 | 12.0 | 0.00 | 0.00 | 0.00 | 61 | 1022.1 |
| 20260507144320 | 46 | 20 | 3.0 | 11.0 | 0.00 | 0.00 | 0.00 | 63 | 1022.2 |
| 20260507143720 | 45 | 359 | 7.0 | 11.0 | 0.00 | 0.00 | 0.00 | 64 | 1022.2 |
| 20260507143121 | 45 | 10 | 7.0 | 11.0 | 0.00 | 0.00 | 0.00 | 65 | 1022.2 |
| 20260507142520 | 44 | 14 | 6.0 | 10.0 | 0.00 | 0.00 | 0.00 | 66 | 1022.3 |
| 20260507141920 | 44 | 335 | 8.0 | 12.0 | 0.00 | 0.00 | 0.00 | 66 | 1022.2 |
| 20260507141319 | 44 | 352 | 9.0 | 12.0 | 0.00 | 0.00 | 0.00 | 67 | 1022.3 |
| 20260507140720 | 43 | 4 | 8.0 | 15.0 | 0.00 | 0.00 | 0.00 | 68 | 1022.3 |
| 20260507140120 | 43 | 352 | 7.0 | 12.0 | 0.00 | 0.00 | 0.00 | 69 | 1022.4 |
| 20260507135520 | 43 | 357 | 8.0 | 13.0 | 0.00 | 0.00 | 0.00 | 70 | 1022.5 |
| 20260507134920 | 43 | 355 | 7.0 | 13.0 | 0.00 | 0.00 | 0.00 | 70 | 1022.4 |
| 20260507134319 | 42 | 22 | 8.0 | 13.0 | 0.00 | 0.00 | 0.00 | 71 | 1022.5 |
| 20260507133719 | 42 | 330 | 9.0 | 12.0 | 0.00 | 0.00 | 0.00 | 71 | 1022.4 |
| 20260507133119 | 42 | 351 | 6.0 | 11.0 | 0.00 | 0.00 | 0.00 | 72 | 1022.2 |
| 20260507132520 | 41 | 345 | 4.0 | 10.0 | 0.00 | 0.00 | 0.00 | 72 | 1022.2 |
| 20260507131919 | 41 | 349 | 6.0 | 9.0 | 0.00 | 0.00 | 0.00 | 71 | 1022.2 |
| 20260507131319 | 41 | 357 | 3.0 | 7.0 | 0.00 | 0.00 | 0.00 | 72 | 1022.1 |
| 20260507130719 | 40 | 345 | 1.0 | 7.0 | 0.00 | 0.00 | 0.00 | 73 | 1022.2 |
| 20260507130119 | 40 | 345 | 3.0 | 7.0 | 0.00 | 0.00 | 0.00 | 73 | 1022.2 |
| 20260507125519 | 40 | 12 | 0.0 | 5.0 | 0.00 | 0.00 | 0.00 | 72 | 1022.1 |
| 20260507124919 | 39 | 340 | 1.0 | 4.0 | 0.00 | 0.00 | 0.00 | 72 | 1022.1 |
| 20260507124320 | 39 | 340 | 1.0 | 4.0 | 0.00 | 0.00 | 0.00 | 72 | 1022.1 |
| 20260507123720 | 39 | 355 | 0.0 | 3.0 | 0.00 | 0.00 | 0.00 | 71 | 1022.1 |
| 20260507123120 | 40 | 9 | 0.0 | 3.0 | 0.00 | 0.00 | 0.00 | 71 | 1022.0 |
| 20260507122519 | 40 | 13 | 0.0 | 2.0 | 0.00 | 0.00 | 0.00 | 71 | 1021.9 |
| 20260507121920 | 40 | 6 | 0.0 | 1.0 | 0.00 | 0.00 | 0.00 | 71 | 1021.8 |
| 20260507121319 | 40 | 359 | 0.0 | 1.0 | 0.00 | 0.00 | 0.00 | 71 | 1021.7 |
| 20260507120719 | 40 | 345 | 0.0 | 2.0 | 0.00 | 0.00 | 0.00 | 70 | 1021.7 |
| 20260507120119 | 40 | 335 | 0.0 | 0.0 | 0.00 | 0.00 | 0.00 | 70 | 1021.6 |
| 20260507115519 | 40 | 340 | 0.0 | 0.0 | 0.00 | 0.00 | 0.00 | 70 | 1021.6 |
| 20260507114919 | 40 | 340 | 0.0 | 2.0 | 0.00 | 0.00 | 0.00 | 69 | 1021.6 |
| 20260507114319 | 41 | 340 | 0.0 | 2.0 | 0.00 | 0.00 | 0.00 | 69 | 1021.6 |
| 20260507113719 | 41 | 335 | 0.0 | 3.0 | 0.00 | 0.00 | 0.00 | 69 | 1021.6 |
| 20260507113119 | 40 | 335 | 0.0 | 0.0 | 0.00 | 0.00 | 0.00 | 69 | 1021.6 |
| 20260507112520 | 40 | 323 | 0.0 | 0.0 | 0.00 | 0.00 | 0.00 | 68 | 1021.6 |
| 20260507111919 | 40 | 340 | 0.0 | 1.0 | 0.00 | 0.00 | 0.00 | 68 | 1021.7 |
| 20260507111319 | 40 | 353 | 0.0 | 1.0 | 0.00 | 0.00 | 0.00 | 67 | 1021.8 |
| 20260507110720 | 40 | 345 | 0.0 | 0.0 | 0.00 | 0.00 | 0.00 | 64 | 1021.7 |
| 20260507110119 | 40 | 340 | 0.0 | 0.0 | 0.00 | 0.00 | 0.00 | 63 | 1021.6 |
| 20260507105519 | 40 | 340 | 0.0 | 0.0 | 0.00 | 0.00 | 0.00 | 62 | 1021.6 |
| 20260507104919 | 40 | 345 | 0.0 | 0.0 | 0.00 | 0.00 | 0.00 | 59 | 1021.6 |
| 20260507104319 | 40 | 340 | 0.0 | 0.0 | 0.00 | 0.00 | 0.00 | 58 | 1021.6 |
| 20260507103720 | 41 | 345 | 0.0 | 0.0 | 0.00 | 0.00 | 0.00 | 55 | 1021.6 |
| 20260507103119 | 41 | 345 | 0.0 | 0.0 | 0.00 | 0.00 | 0.00 | 53 | 1021.5 |
| 20260507102519 | 41 | 340 | 0.0 | 0.0 | 0.00 | 0.00 | 0.00 | 53 | 1021.5 |
| 20260507101920 | 41 | 345 | 0.0 | 0.0 | 0.00 | 0.00 | 0.00 | 52 | 1021.5 |
| 20260507101319 | 41 | 350 | 0.0 | 0.0 | 0.00 | 0.00 | 0.00 | 54 | 1021.5 |
| 20260507100719 | 41 | 345 | 0.0 | 0.0 | 0.00 | 0.00 | 0.00 | 52 | 1021.5 |
| 20260507100119 | 41 | 340 | 0.0 | 0.0 | 0.00 | 0.00 | 0.00 | 49 | 1021.5 |
| 20260507095519 | 42 | 345 | 0.0 | 0.0 | 0.00 | 0.00 | 0.00 | 48 | 1021.5 |
| 20260507094919 | 42 | 345 | 0.0 | 0.0 | 0.00 | 0.00 | 0.00 | 46 | 1021.4 |
| 20260507094319 | 42 | 345 | 0.0 | 0.0 | 0.00 | 0.00 | 0.00 | 44 | 1021.5 |
| 20260507093719 | 42 | 345 | 0.0 | 0.0 | 0.00 | 0.00 | 0.00 | 45 | 1021.3 |
| 20260507093119 | 42 | 345 | 0.0 | 0.0 | 0.00 | 0.00 | 0.00 | 43 | 1021.3 |
| 20260507092519 | 43 | 345 | 0.0 | 0.0 | 0.00 | 0.00 | 0.00 | 41 | 1021.3 |
| 20260507091919 | 43 | 345 | 0.0 | 0.0 | 0.00 | 0.00 | 0.00 | 40 | 1021.2 |
| 20260507091319 | 43 | 353 | 0.0 | 0.0 | 0.00 | 0.00 | 0.00 | 39 | 1021.1 |
| 20260507090719 | 44 | 352 | 0.0 | 0.0 | 0.00 | 0.00 | 0.00 | 38 | 1021.3 |
| 20260507090119 | 44 | 26 | 0.0 | 0.0 | 0.00 | 0.00 | 0.00 | 38 | 1021.4 |
| 20260507085519 | 44 | 8 | 0.0 | 0.0 | 0.00 | 0.00 | 0.00 | 38 | 1021.4 |
| 20260507084919 | 44 | 8 | 0.0 | 0.0 | 0.00 | 0.00 | 0.00 | 37 | 1021.1 |
| 20260507084319 | 44 | 9 | 0.0 | 0.0 | 0.00 | 0.00 | 0.00 | 37 | 1021.2 |
| 20260507083719 | 45 | 356 | 0.0 | 0.0 | 0.00 | 0.00 | 0.00 | 37 | 1021.1 |
| 20260507083118 | 45 | 356 | 0.0 | 0.0 | 0.00 | 0.00 | 0.00 | 37 | 1021.1 |
| 20260507082519 | 45 | 8 | 0.0 | 0.0 | 0.00 | 0.00 | 0.00 | 37 | 1021.1 |
| 20260507081919 | 44 | 3 | 0.0 | 2.0 | 0.00 | 0.00 | 0.00 | 37 | 1021.0 |
| 20260507081319 | 44 | 7 | 0.0 | 2.0 | 0.00 | 0.00 | 0.00 | 39 | 1021.0 |
| 20260507080720 | 44 | 345 | 0.0 | 0.0 | 0.00 | 0.00 | 0.00 | 38 | 1020.9 |
| 20260507080119 | 44 | 340 | 0.0 | 0.0 | 0.00 | 0.00 | 0.00 | 38 | 1020.9 |
| 20260507075518 | 44 | 335 | 0.0 | 0.0 | 0.00 | 0.00 | 0.00 | 38 | 1020.8 |
| 20260507074918 | 43 | 67 | 0.0 | 2.0 | 0.00 | 0.00 | 0.00 | 39 | 1020.8 |
| 20260507074319 | 43 | 22 | 0.0 | 1.0 | 0.00 | 0.00 | 0.00 | 40 | 1020.8 |
| 20260507073718 | 43 | 272 | 0.0 | 1.0 | 0.00 | 0.00 | 0.00 | 40 | 1020.5 |
| 20260507073118 | 43 | 289 | 0.0 | 2.0 | 0.00 | 0.00 | 0.00 | 41 | 1020.5 |
| 20260507072518 | 43 | 328 | 0.0 | 1.0 | 0.00 | 0.00 | 0.00 | 41 | 1020.4 |
| 20260507071918 | 43 | 305 | 0.0 | 1.0 | 0.00 | 0.00 | 0.00 | 41 | 1020.4 |
| 20260507071318 | 44 | 295 | 0.0 | 2.0 | 0.00 | 0.00 | 0.00 | 41 | 1020.4 |
| 20260507070718 | 44 | 309 | 0.0 | 2.0 | 0.00 | 0.00 | 0.00 | 40 | 1020.4 |
| 20260507070118 | 44 | 311 | 0.0 | 0.0 | 0.00 | 0.00 | 0.00 | 39 | 1020.4 |
| 20260507065518 | 44 | 296 | 0.0 | 0.0 | 0.00 | 0.00 | 0.00 | 39 | 1020.4 |
| 20260507064919 | 45 | 284 | 0.0 | 0.0 | 0.00 | 0.00 | 0.00 | 40 | 1020.4 |
| 20260507064318 | 45 | 297 | 0.0 | 1.0 | 0.00 | 0.00 | 0.00 | 41 | 1020.4 |
| 20260507063718 | 45 | 275 | 0.0 | 1.0 | 0.00 | 0.00 | 0.00 | 41 | 1020.4 |
| 20260507063118 | 45 | 319 | 0.0 | 1.0 | 0.00 | 0.00 | 0.00 | 41 | 1020.2 |
| 20260507062518 | 45 | 289 | 0.0 | 1.0 | 0.00 | 0.00 | 0.00 | 41 | 1020.3 |
| 20260507061918 | 45 | 297 | 0.0 | 2.0 | 0.00 | 0.00 | 0.00 | 41 | 1020.2 |
| 20260507061318 | 46 | 268 | 0.0 | 2.0 | 0.00 | 0.00 | 0.00 | 41 | 1020.3 |
| 20260507060718 | 46 | 289 | 0.0 | 0.0 | 0.00 | 0.00 | 0.00 | 41 | 1020.3 |
| 20260507060118 | 47 | 308 | 0.0 | 0.0 | 0.00 | 0.00 | 0.00 | 40 | 1020.2 |
| 20260507055518 | 47 | 294 | 0.0 | 0.0 | 0.00 | 0.00 | 0.00 | 39 | 1020.2 |
| 20260507054918 | 47 | 284 | 0.0 | 1.0 | 0.00 | 0.00 | 0.00 | 39 | 1020.1 |